Wetbulb
53.51 53.43 53.85 52.69 51.86 56.50 53.28 54.05 51.24 53.14 56.44 59.37 60.99 61.96 62.80 63.42 64.65 66.27 68.76 69.80 70.14 70.83 71.95 72.52 73.83 75.65 76.86 77.93 78.99 79.11 77.69 79.24
53.15 53.99 53.71 54.03 56.19 51.40 53.29 48.19 46.66 50.68 52.75 53.83 58.18 59.58 61.13 61.51 63.02 65.35 67.61 69.35 70.28 71.08 71.94 73.26 74.14 75.05 75.97 77.65 78.38 78.18 77.48 77.66
52.97 50.99 50.15 50.95 51.76 54.05 54.32 52.62 48.81 47.55 50.79 58.50 58.64 60.06 59.93 60.78 62.37 63.64 65.48 68.51 70.23 71.21 72.29 73.72 74.36 74.74 75.40 76.11 76.47 76.65 78.15 78.42
49.47 52.96 53.88 53.35 52.65 54.40 50.93 51.08 52.66 51.75 51.83 59.51 60.40 60.38 60.87 61.27 62.20 63.29 65.01 67.26 69.75 71.24 72.24 72.69 73.73 74.50 74.93 75.64 75.87 76.51 77.99 78.93
48.54 49.94 52.19 50.59 52.93 53.81 54.78 54.62 53.36 49.46 51.54 60.45 60.03 60.63 61.89 62.20 63.66 64.83 68.45 68.86 69.67 70.84 72.00 72.66 73.59 75.52 74.81 75.50 75.60 76.36 76.80 76.80
47.37 49.26 50.65 48.67 49.80 52.08 52.36 51.33 51.47 52.07 54.59 57.46 58.68 59.25 60.91 62.23 63.47 64.73 66.82 69.35 70.21 70.70 71.83 73.13 74.24 76.54 76.69 75.44 75.94 76.20 76.41 76.44
52.59 52.67 52.51 51.38 49.87 49.78 49.52 51.09 49.72 52.36 53.44 57.03 59.05 59.74 60.91 61.92 62.38 63.33 67.54 69.20 70.36 70.85 71.99 73.64 74.44 76.23 75.75 75.83 76.25 76.66 76.24 76.10
51.73 52.90 52.45 50.85 51.91 51.62 50.88 50.75 51.09 51.82 52.84 58.39 59.87 60.58 60.63 61.20 61.83 63.22 66.44 69.26 70.40 71.14 72.27 73.31 74.16 74.92 75.53 75.65 75.83 76.52 76.17 76.14
49.01 53.02 52.55 49.50 52.24 52.59 52.89 53.03 51.83 49.74 54.17 57.37 57.37 58.82 60.57 63.46 63.13 63.90 64.93 69.04 70.38 71.29 72.29 73.61 74.41 75.52 75.13 75.67 76.20 76.18 76.62 76.69
49.86 52.10 44.66 53.22 56.89 55.89 53.96 54.44 54.42 53.83 55.21 56.69 57.71 60.30 61.38 65.58 64.58 65.16 65.92 67.30 70.48 71.48 72.19 73.73 74.44 74.98 75.33 75.72 76.15 76.22 76.35 76.22
49.18 49.32 51.60 52.88 54.77 54.44 53.60 53.37 56.41 55.15 56.29 56.94 58.96 61.01 62.43 65.05 66.39 67.19 67.83 69.09 70.54 71.98 72.74 73.78 73.65 74.49 74.74 74.73 75.45 75.77 75.38 75.53
52.24 47.27 45.18 54.18 57.95 59.96 59.43 51.53 57.41 57.23 56.92 57.48 58.45 55.78 59.46 65.50 66.45 66.20 67.28 69.64 70.89 71.48 72.08 72.88 73.53 74.19 74.18 74.35 74.88 74.54 74.95 75.11
50.62 49.58 52.38 56.65 58.00 59.76 50.05 52.89 61.45 59.24 58.82 58.58 58.06 60.66 65.12 65.92 66.68 67.86 68.95 70.40 71.48 71.90 71.67 72.78 73.90 74.55 73.93 74.32 73.98 75.28 75.51 75.28
52.24 49.82 47.78 57.48 58.15 54.29 58.96 63.34 62.74 62.97 63.35 63.20 64.63 65.29 66.42 67.48 68.16 68.74 69.66 70.56 71.84 72.05 72.12 72.65 74.17 74.68 74.18 73.98 75.32 75.85 75.43 74.56
54.07 53.89 57.69 58.32 57.87 60.30 61.02 61.75 64.45 63.89 64.12 65.07 64.79 65.62 66.80 67.33 68.52 68.93 69.75 70.33 71.47 71.54 71.93 73.29 74.35 74.50 73.54 74.23 75.30 74.81 74.39 73.46
54.70 54.92 56.52 57.75 57.87 59.38 60.92 60.61 62.33 65.61 66.15 66.21 65.05 65.61 65.87 66.72 67.36 67.91 68.98 69.54 70.59 71.10 71.40 71.94 73.08 73.76 73.17 73.51 74.03 72.98 72.26 71.09
54.75 55.65 54.93 56.38 57.95 58.50 58.43 60.33 61.18 63.32 64.89 65.53 66.07 66.41 67.17 67.62 68.29 68.60 69.17 70.35 71.32 71.62 71.69 72.06 72.73 72.32 72.87 72.39 72.92 70.95 70.78 70.36
52.92 56.93 56.59 55.51 56.62 57.67 57.06 57.99 59.46 59.78 60.55 62.15 63.46 63.83 65.92 67.24 68.36 68.46 67.89 69.93 69.57 70.29 70.61 70.18 71.15 70.68 70.36 72.30 71.73 70.84 69.92 69.23
56.51 58.73 56.82 55.60 53.60 54.68 53.96 54.83 56.48 57.42 58.23 58.42 60.51 61.80 62.99 64.21 66.88 65.24 69.39 69.51 68.85 68.77 69.72 70.51 69.62 69.76 70.98 70.12 70.61 70.40 69.58 68.77
MSLP
995.65 996.08 995.65 995.45 995.39 995.73 995.17 995.45 995.41 995.40 995.89 996.36 995.90 995.77 995.71 995.46 995.71 996.52 997.23 998.31 999.45 1000.71 1001.83 1002.89 1003.97 1004.99 1005.94 1007.00 1007.91 1008.57 1009.27 1010.22
995.16 995.81 995.32 994.27 995.29 995.33 994.62 994.12 994.14 994.63 994.43 994.22 994.78 994.71 994.67 994.41 994.67 995.06 996.05 997.05 998.11 999.13 1000.23 1001.52 1002.55 1003.80 1005.12 1006.06 1006.79 1007.65 1008.40 1009.14
994.84 994.21 993.71 994.32 993.91 994.06 994.57 994.27 993.55 993.82 993.27 993.84 994.15 993.99 993.67 993.49 993.60 993.99 994.68 995.65 996.72 997.80 998.98 1000.31 1001.58 1002.56 1003.83 1004.94 1005.84 1006.72 1007.22 1007.94
993.53 993.59 994.07 993.56 993.91 993.76 993.43 993.70 993.52 993.29 992.23 992.79 993.01 993.53 993.47 993.35 993.17 993.40 993.99 994.65 995.59 996.70 998.12 999.10 1000.40 1001.30 1002.41 1003.46 1004.41 1005.17 1005.88 1006.90
993.64 993.62 993.49 992.92 993.02 993.07 993.24 993.63 992.38 992.64 992.44 992.87 993.11 993.27 993.22 993.09 993.20 993.64 994.44 995.09 995.35 996.06 997.07 998.21 999.38 1000.37 1001.09 1002.14 1002.94 1003.89 1005.19 1006.04
992.07 991.87 992.58 993.16 992.79 992.60 992.45 992.05 992.08 991.34 991.93 992.11 992.25 992.69 992.77 992.72 992.77 993.02 994.07 994.83 995.25 995.91 996.57 997.71 998.70 999.56 1000.31 1001.04 1002.00 1003.00 1003.91 1004.99
992.94 992.24 992.04 991.95 992.26 992.49 992.00 991.83 991.57 991.73 991.39 991.72 991.89 992.13 992.34 992.26 992.27 992.63 993.54 994.60 994.93 995.54 996.24 997.28 998.17 998.99 999.95 1000.73 1001.50 1002.16 1003.19 1004.22
992.88 992.48 992.00 991.33 991.34 991.48 991.56 991.78 991.65 991.58 990.71 991.28 991.56 992.13 991.99 991.96 991.96 992.25 992.86 993.85 994.46 995.32 995.99 996.70 997.43 998.44 999.47 1000.25 1001.04 1001.95 1002.60 1003.50
992.37 992.20 991.77 990.82 990.47 990.31 990.49 990.66 990.80 990.05 990.39 991.30 991.05 990.97 991.23 991.45 991.60 991.68 991.90 992.47 993.42 994.31 994.88 995.93 996.86 997.95 998.83 999.83 1000.70 1001.53 1002.21 1003.27
992.32 991.74 990.59 989.64 989.73 989.78 989.70 989.57 989.66 989.76 990.19 990.06 990.45 990.31 990.57 990.85 990.90 991.18 991.32 991.62 992.38 993.38 994.60 995.79 996.44 997.37 998.50 999.45 1000.31 1001.17 1001.95 1002.85
991.98 991.10 990.65 989.90 990.17 990.63 989.99 989.25 989.21 988.92 989.50 989.88 989.69 990.23 990.43 990.93 990.77 990.86 990.98 991.38 991.82 992.68 993.90 995.24 995.83 996.85 997.93 998.85 999.93 1001.00 1001.96 1002.73
991.84 991.42 990.77 992.26 992.58 992.81 992.10 989.98 989.17 988.86 989.14 989.23 989.84 989.69 989.79 989.95 991.08 991.39 991.29 991.63 992.32 992.98 993.79 994.91 995.41 996.48 997.54 998.52 999.60 1000.53 1001.52 1002.53
992.14 991.86 992.00 993.63 993.63 993.37 992.89 991.97 991.06 988.84 988.79 989.10 989.39 989.73 991.06 991.54 991.71 991.25 991.73 992.04 992.51 993.25 994.27 995.05 995.71 996.79 997.65 998.63 999.65 1000.52 1001.47 1002.35
991.59 992.40 993.22 994.70 994.38 993.62 994.13 993.12 992.14 991.12 990.45 990.08 990.04 991.47 991.77 992.22 992.07 992.09 992.62 992.89 993.28 993.90 995.23 995.96 996.58 997.34 998.13 998.94 999.81 1000.52 1001.23 1001.94
992.84 993.67 995.22 995.50 995.52 995.26 994.63 994.66 993.58 992.40 991.56 991.53 991.90 992.30 992.39 992.58 992.40 992.84 993.48 993.72 994.31 995.09 995.96 996.72 997.18 997.90 998.62 999.35 1000.11 1000.68 1001.27 1002.30
994.77 995.99 996.16 996.38 996.63 996.14 995.15 995.98 995.50 993.89 992.84 992.83 993.09 993.30 994.15 993.65 993.35 993.49 993.93 994.17 994.88 995.63 996.47 997.41 998.18 998.62 999.24 1000.05 1000.68 1001.44 1002.15 1003.22
995.67 996.72 997.21 997.67 997.22 997.34 997.07 997.25 996.98 995.73 995.17 995.22 995.07 995.02 995.34 994.94 994.94 995.15 994.82 995.39 995.79 996.51 997.15 998.02 998.75 999.50 999.85 1000.26 1000.92 1001.97 1002.82 1003.38
995.73 996.89 997.25 998.79 998.70 998.90 998.40 998.67 998.34 997.23 996.78 996.60 996.28 996.32 996.46 996.33 996.28 996.68 996.40 996.52 997.11 997.73 998.57 999.14 999.68 1000.57 1000.90 1001.09 1001.75 1002.09 1002.59 1003.52
997.82 998.55 999.05 1000.01 1000.49 1000.25 1000.28 1000.31 999.53 998.45 998.28 998.33 998.16 998.02 998.00 997.82 997.94 997.98 997.78 997.80 998.39 998.20 999.50 999.76 1000.27 1001.07 1001.65 1001.87 1000.91 1001.28 1002.53 1003.34
Wind_Speed
24 19 26 27 29 24 23 20 18 17 15 22 13 17 17 16 14 15 20 24 26 26 25 24 23 22 21 20 19 20 20 15
24 21 27 28 22 25 21 24 22 20 21 12 18 19 19 17 14 17 18 21 23 25 26 24 24 22 22 21 21 20 20 18
20 27 24 22 20 26 22 21 18 19 17 15 14 12 12 12 13 13 14 18 21 22 24 24 22 22 22 22 22 20 19 18
24 25 27 25 25 27 18 25 19 21 16 18 20 18 21 20 15 10 9 11 17 20 22 23 24 22 22 22 21 22 20 18
19 20 24 29 27 27 26 21 26 21 17 16 11 11 12 14 13 10 7 10 13 17 20 21 22 20 22 21 22 21 18 19
18 22 20 21 26 28 28 22 20 23 21 23 22 18 17 12 13 14 10 10 13 15 19 20 19 18 19 20 19 18 19 19
25 23 24 24 25 25 28 28 28 22 28 21 23 17 19 18 16 15 9 13 15 17 17 18 19 17 17 17 16 16 17 17
21 24 24 21 25 27 28 28 28 31 30 21 22 24 21 21 19 18 14 15 16 17 18 20 20 18 16 16 16 15 16 17
18 21 23 26 27 27 29 28 28 29 23 24 27 24 24 21 21 19 18 16 15 19 19 17 17 16 16 16 16 16 16 15
15 17 22 18 23 25 27 27 30 27 24 23 26 22 23 23 20 18 18 18 14 14 15 16 16 17 16 16 16 16 15 16
15 16 13 15 12 14 24 27 25 25 22 25 22 16 16 17 16 18 16 14 12 13 15 16 17 17 17 17 16 15 15 14
10 19 18 7 9 9 11 14 24 24 25 24 18 15 16 9 12 14 9 10 11 14 15 17 17 18 18 17 15 15 15 14
17 13 9 6 7 2 7 5 22 22 25 22 21 14 3 5 8 6 6 8 11 13 13 14 15 16 16 16 14 13 12 12
12 12 16 6 5 5 7 12 12 11 12 15 11 9 10 10 11 14 14 15 16 15 14 14 15 14 14 14 12 12 12 12
6 3 7 4 2 2 4 7 11 0 6 10 13 12 15 16 17 17 15 15 16 16 16 13 14 13 13 13 12 12 12 11
10 6 8 11 11 10 14 7 4 9 12 14 15 16 13 14 16 17 15 15 15 16 16 14 11 11 13 11 11 11 10 9
14 12 13 11 12 12 12 11 10 15 16 15 14 14 12 13 13 12 15 14 13 12 13 13 12 12 12 13 13 11 11 11
8 11 12 10 10 8 10 9 10 14 17 16 16 16 14 13 13 12 11 12 12 12 11 11 11 12 11 11 11 11 12 9
6 12 18 14 10 7 5 6 10 15 15 15 15 13 14 13 13 11 11 12 11 12 10 11 13 11 10 7 14 12 9 9
Wind_Direction
212 211 219 200 218 227 242 222 235 222 214 248 242 261 261 253 227 223 204 209 208 205 204 203 204 204 201 200 201 202 201 202
197 210 220 230 204 219 229 232 226 239 232 219 222 230 237 236 227 222 215 210 211 209 204 203 203 204 203 200 201 200 203 202
206 208 203 208 230 215 232 227 240 227 233 219 241 242 243 245 222 228 224 212 211 208 209 200 204 202 203 203 203 202 201 198
210 215 222 209 214 215 224 221 234 251 241 224 223 231 247 247 255 284 255 231 211 205 204 201 202 205 200 205 203 204 201 195
232 205 219 226 211 224 217 234 225 230 231 240 195 227 260 249 257 263 244 243 221 202 196 200 200 203 203 203 206 205 200 200
216 218 192 212 233 229 227 226 235 241 231 226 224 233 238 239 259 268 260 230 204 199 194 197 200 198 203 206 206 203 198 202
231 245 223 220 209 225 235 240 240 238 242 226 239 232 250 259 258 268 247 219 199 196 197 193 196 198 201 205 203 203 201 199
234 234 242 242 228 230 224 232 241 245 247 243 223 241 242 247 251 251 245 223 204 199 198 196 196 195 191 194 196 198 194 200
238 225 238 238 240 233 233 230 235 237 238 234 243 238 235 239 242 243 245 227 207 204 201 195 190 187 185 184 184 186 195 189
239 229 237 244 241 237 244 236 231 234 241 228 236 230 231 229 238 240 239 243 212 202 197 190 184 175 175 176 180 183 185 190
237 229 237 226 215 259 243 237 240 234 232 234 220 227 253 245 239 239 244 241 221 195 181 180 175 169 169 169 170 176 186 190
199 245 235 50 23 354 327 257 236 234 217 225 230 232 243 207 216 229 233 218 192 179 168 175 171 162 162 162 164 173 182 185
230 229 206 32 341 152 213 309 321 242 235 225 230 238 353 185 182 146 158 156 153 152 159 157 151 150 151 152 164 169 166 160
229 216 224 5 210 243 359 324 311 277 254 240 214 167 149 136 126 120 125 126 122 118 127 135 137 145 139 141 142 150 150 152
257 168 86 78 75 51 24 1 347 56 151 153 160 151 143 136 121 114 115 118 119 119 116 116 126 135 135 139 146 148 141 139
169 125 91 100 82 59 69 69 50 54 89 105 113 113 116 106 106 107 100 99 106 108 107 105 103 98 110 117 121 126 123 131
100 126 110 78 68 71 75 70 71 77 84 85 82 76 76 73 78 83 89 86 81 84 94 97 97 101 112 119 125 116 132 130
158 145 112 86 57 40 62 77 69 70 61 52 60 63 65 65 66 57 65 82 87 89 88 92 95 99 116 126 119 127 120 134
107 108 96 94 52 35 62 63 63 70 74 72 53 53 59 55 45 49 63 80 85 87 113 122 117 121 116 145 131 111 126 130